Location: Unspecified
(0.0000°N, 0.0000°E)
Time: 20:51:55
(UTC+00:00)

Orbcomm F1 (FM01) - Visible Passes

Search period start: 15 May 2026 00:00
Search period end: 25 May 2026 00:00
Orbit: 577 x 584 km, 70.0° (Epoch: 14 May)

Date Brightness Start Highest point End Pass type
(mag) Time Alt. Az. Time Alt. Az. Time Alt. Az.
18 May 10.0 04:12:50 10° SE 04:14:07 11° ESE 04:15:25 10° E visible
19 May 9.3 04:15:59 10° SSE 04:19:12 21° ESE 04:22:23 10° ENE visible
20 May 8.3 04:21:21 17° SSE 04:24:14 37° ESE 04:28:11 10° NE visible
21 May 7.0 04:27:27 33° S 04:29:16 73° ESE 04:33:30 10° NNE visible
22 May 7.0 04:33:28 48° WSW 04:34:17 57° WNW 04:38:27 10° N visible
23 May 7.8 04:39:24 30° WNW 04:39:24 30° WNW 04:43:02 10° NNW visible
24 May 10.2 03:08:51 11° ENE 03:08:51 11° ENE 03:09:04 10° ENE visible
24 May 8.8 04:45:14 16° WNW 04:45:14 16° WNW 04:47:02 10° NNW visible
